EDT,Max TemperatureF,Mean TemperatureF,Min TemperatureF,Max Dew PointF,MeanDew PointF,Min DewpointF,Max Humidity, Mean Humidity, Min Humidity, Max Sea Level PressureIn, Mean Sea Level PressureIn, Min Sea Level PressureIn, Max VisibilityMiles, Mean VisibilityMiles, Min VisibilityMiles, Max Wind SpeedMPH, Mean Wind SpeedMPH, Max Gust SpeedMPH,PrecipitationIn, CloudCover, Events, WindDirDegrees
2013-7-1,79,74,69,73,71,68,100,95,74,30.08,30.01,29.93,10,5,0,13,5,,1.09,8,Fog-Rain-Thunderstorm,143
2013-7-2,74,66,57,74,67,57,100,99,94,30.23,30.15,30.07,10,3,0,13,6,,0.05,8,Fog-Rain,100
2013-7-3,87,72,58,73,65,57,100,89,60,30.21,30.17,30.10,10,5,0,9,2,,0.00,7,Fog-Rain,198
2013-7-4,92,82,72,73,72,71,99,72,54,30.18,30.12,30.06,10,10,7,10,6,,0.00,1,,236
2013-7-5,93,84,74,74,73,72,92,69,51,30.14,30.08,30.00,10,10,10,14,7,17,0.00,2,,239
2013-7-6,89,82,74,72,70,67,87,68,51,30.06,30.01,29.96,10,10,10,14,7,20,0.00,6,,255
2013-7-7,88,79,70,72,68,64,95,73,48,30.00,29.95,29.89,10,9,2,10,5,34,0.14,6,Rain-Thunderstorm,245
2013-7-8,78,71,64,74,67,61,100,88,71,30.08,29.97,29.90,10,8,4,13,4,18,0.03,6,Rain,48
2013-7-9,72,67,62,64,63,61,100,86,75,30.12,30.09,30.06,10,8,0,8,5,,0.00,7,Fog,62
2013-7-10,76,68,62,72,67,62,100,97,83,30.08,29.92,29.78,7,2,0,9,4,,0.37,8,Fog-Rain-Thunderstorm,94
2013-7-11,82,76,70,74,72,68,100,91,67,29.94,29.82,29.76,10,7,1,8,5,,0.04,7,Rain-Thunderstorm,250
2013-7-12,76,71,64,61,57,54,80,63,48,30.22,30.11,29.96,10,10,10,16,9,23,0.00,6,,51
2013-7-13,75,68,62,65,59,55,94,69,51,30.32,30.29,30.22,10,10,10,8,4,,0.00,6,,79
2013-7-14,87,76,66,72,69,64,100,83,58,30.29,30.25,30.19,10,8,1,8,4,,0.00,4,,193
2013-7-15,89,79,69,72,71,68,99,76,51,30.19,30.14,30.08,10,9,7,10,4,,0.00,3,,235
2013-7-16,92,80,68,71,67,64,88,68,46,30.17,30.13,30.10,10,10,8,9,4,,0.00,2,,255
2013-7-17,93,80,68,72,71,66,99,75,46,30.18,30.08,29.94,10,9,1,20,4,24,0.19,3,Rain-Thunderstorm,198
2013-7-18,86,78,71,73,70,66,99,82,62,30.01,29.98,29.93,10,10,10,16,6,,0.02,5,Rain-Thunderstorm,160
2013-7-19,96,82,69,76,72,69,100,81,43,29.94,29.82,29.68,10,6,0,16,5,23,0.00,5,Fog,224
2013-7-20,92,83,73,72,67,63,70,59,47,29.79,29.69,29.63,10,10,8,15,9,24,0.00,5,Thunderstorm,252
2013-7-21,77,71,66,66,61,52,95,72,44,30.00,29.93,29.81,10,10,10,12,6,,0.00,6,,118
2013-7-22,77,72,66,68,66,63,100,89,68,30.04,29.99,29.91,10,6,1,13,4,,0.00,7,,70
2013-7-23,73,70,66,71,68,65,100,97,89,29.88,29.67,29.55,10,4,0,10,6,,0.99,8,Fog-Rain-Thunderstorm,39
2013-7-24,86,74,62,77,66,51,100,84,54,29.97,29.67,29.57,10,5,0,16,4,22,0.00,6,Fog,265
2013-7-25,66,62,59,61,53,48,100,75,59,30.12,30.08,29.99,10,9,6,10,6,,0.14,8,Rain,29
2013-7-26,73,66,60,66,63,59,98,88,69,30.07,29.97,29.91,10,9,7,16,9,,0.10,8,Rain,328
2013-7-27,83,72,62,66,61,58,89,73,42,30.04,30.01,29.97,10,10,10,12,8,,0.00,3,,224
2013-7-28,71,67,63,68,65,63,100,95,86,30.03,30.01,29.99,10,4,1,13,4,,0.03,8,Rain,52
2013-7-29,76,69,63,68,66,63,100,94,78,30.04,30.01,29.97,10,4,0,13,4,,0.16,7,Fog-Rain-Thunderstorm,80
2013-7-30,81,70,60,66,60,53,100,74,38,30.09,30.05,30.02,10,7,0,14,5,20,0.00,2,Fog,292
2013-7-31,78,68,59,60,58,56,95,70,48,30.13,30.08,30.05,10,10,10,12,5,,0.00,4,,223